Tracking 35274 objects as of 11-Sep-2026
HD Live streaming from Space Station
objects crossing your sky now

ISS DEB


ISS DEB is no longer on orbit


NORAD ID: 36826
Int'l Code: 1998-067CA
Launch date: November 20, 1998
Source: International Space Station (ISS)
Launch site: TYURATAM MISSILE AND SPACE COMPLEX (TTMTR)
Decay date: 2010-11-15

Note: This is SATELLITE DEBRIS
Your satellite tracking list
Your tracking list is empty




NASA's NSSDC Master Catalog

Two Line Element Set (TLE):
1 36826U 98067CA  10319.07491094  .08468550  12145-4  14608-2 0  9997
2 36826 051.6342 168.7313 0005415 245.4519 114.6095 16.32124441 17497
Source of the keplerian elements: AFSPC